Time,TemperatureF,DewpointF,PressureIn,WindDirection,WindDirectionDegrees,WindSpeedMPH,WindSpeedGustMPH,Humidity,HourlyPrecipIn,Conditions,Clouds,dailyrainin,SolarRadiationWatts/m^2,SoftwareType,DateUTC
2013-09-28 00:03:00,79.9,78.1,29.84,ESE,116,2.9,4.0,94,0.00,,,0.00,0.0,meteobridge,2013-09-28 05:03:00,
2013-09-28 00:08:00,79.7,77.9,29.84,SSE,165,0.0,2.0,94,0.00,,,0.00,0.0,meteobridge,2013-09-28 05:08:00,
2013-09-28 00:13:00,79.9,78.1,29.84,SE,134,4.0,4.0,94,0.00,,,0.00,0.0,meteobridge,2013-09-28 05:13:00,
2013-09-28 00:18:00,79.9,78.1,29.85,SE,140,4.0,6.0,94,0.00,,,0.00,0.0,meteobridge,2013-09-28 05:18:00,
2013-09-28 00:23:00,79.9,78.1,29.85,SSE,151,4.0,8.1,94,0.00,,,0.00,0.0,meteobridge,2013-09-28 05:23:00,
2013-09-28 00:28:00,79.9,78.1,29.85,SE,132,0.9,4.0,94,0.00,,,0.00,0.0,meteobridge,2013-09-28 05:28:00,
2013-09-28 00:33:00,80.1,78.3,29.85,SSE,156,2.9,4.0,94,0.00,,,0.00,0.0,meteobridge,2013-09-28 05:33:00,
2013-09-28 00:38:00,80.1,78.3,29.85,SSE,148,4.0,4.9,94,0.00,,,0.00,0.0,meteobridge,2013-09-28 05:38:00,
2013-09-28 00:43:00,80.1,78.3,29.85,SSE,159,2.0,4.9,94,0.00,,,0.00,0.0,meteobridge,2013-09-28 05:43:00,
2013-09-28 00:48:00,80.1,78.3,29.85,SE,130,0.0,4.0,94,0.00,,,0.00,0.0,meteobridge,2013-09-28 05:48:00,
2013-09-28 00:53:00,80.1,78.3,29.85,SE,136,0.0,4.9,94,0.00,,,0.00,0.0,meteobridge,2013-09-28 05:53:00,
2013-09-28 00:58:00,80.1,78.3,29.85,SE,145,4.9,6.9,94,0.00,,,0.00,0.0,meteobridge,2013-09-28 05:58:00,
2013-09-28 01:04:00,80.1,78.3,29.85,SE,126,0.0,4.9,94,0.00,,,0.00,0.0,meteobridge,2013-09-28 06:04:00,
2013-09-28 01:09:00,80.1,78.3,29.85,SSE,155,6.9,6.9,94,0.00,,,0.00,0.0,meteobridge,2013-09-28 06:09:00,
2013-09-28 01:14:00,80.1,78.3,29.85,SE,126,0.0,4.0,94,0.00,,,0.00,0.0,meteobridge,2013-09-28 06:14:00,
2013-09-28 01:19:00,80.2,78.4,29.85,SE,146,2.9,6.0,94,0.00,,,0.00,0.0,meteobridge,2013-09-28 06:19:00,
2013-09-28 01:24:00,80.2,78.4,29.85,SSE,165,6.0,6.9,94,0.00,,,0.00,0.0,meteobridge,2013-09-28 06:24:00,
2013-09-28 01:29:00,80.2,78.4,29.84,SSE,153,6.0,6.0,94,0.00,,,0.00,0.0,meteobridge,2013-09-28 06:29:00,
2013-09-28 01:34:00,80.2,78.4,29.84,SE,137,2.9,8.1,94,0.00,,,0.00,0.0,meteobridge,2013-09-28 06:34:00,
2013-09-28 01:39:00,80.2,78.4,29.84,SE,142,2.0,8.1,94,0.00,,,0.00,0.0,meteobridge,2013-09-28 06:39:00,
2013-09-28 01:44:00,80.2,78.1,29.84,SE,132,2.0,8.1,93,0.00,,,0.00,0.0,meteobridge,2013-09-28 06:44:00,
2013-09-28 01:49:00,80.2,78.4,29.84,SE,133,4.9,8.1,94,0.00,,,0.00,0.0,meteobridge,2013-09-28 06:49:00,
2013-09-28 01:54:00,80.2,78.1,29.84,SE,132,4.0,10.1,93,0.00,,,0.00,0.0,meteobridge,2013-09-28 06:54:00,
2013-09-28 01:59:00,80.4,78.3,29.84,SE,126,2.9,6.9,93,0.00,,,0.00,0.0,meteobridge,2013-09-28 06:59:00,
2013-09-28 02:04:00,80.4,78.3,29.84,SSE,155,4.0,8.1,93,0.00,,,0.00,0.0,meteobridge,2013-09-28 07:04:00,
2013-09-28 02:09:00,80.4,78.3,29.84,SE,132,4.0,8.1,93,0.00,,,0.00,0.0,meteobridge,2013-09-28 07:09:00,
2013-09-28 02:14:00,80.4,78.3,29.85,SE,134,4.0,6.0,93,0.00,,,0.00,0.0,meteobridge,2013-09-28 07:14:00,
2013-09-28 02:19:00,80.4,78.3,29.85,SE,128,0.9,4.0,93,0.00,,,0.00,0.0,meteobridge,2013-09-28 07:19:00,
2013-09-28 02:24:00,80.4,78.3,29.85,SE,140,2.9,4.9,93,0.00,,,0.00,0.0,meteobridge,2013-09-28 07:24:00,
2013-09-28 02:29:00,80.4,78.3,29.84,SE,127,4.0,6.9,93,0.00,,,0.00,0.0,meteobridge,2013-09-28 07:29:00,
2013-09-28 02:34:00,80.4,78.3,29.84,SSE,156,4.9,8.9,93,0.00,,,0.00,0.0,meteobridge,2013-09-28 07:34:00,
2013-09-28 02:39:00,80.4,78.3,29.84,SSE,148,6.0,8.1,93,0.00,,,0.00,0.0,meteobridge,2013-09-28 07:39:00,
2013-09-28 02:44:00,80.6,78.4,29.84,South,189,4.9,8.9,93,0.00,,,0.00,0.0,meteobridge,2013-09-28 07:44:00,
2013-09-28 02:50:00,80.6,78.4,29.84,SSE,147,2.0,8.1,93,0.00,,,0.00,0.0,meteobridge,2013-09-28 07:50:00,
2013-09-28 02:55:00,80.6,78.4,29.84,SE,139,0.9,6.9,93,0.00,,,0.00,0.0,meteobridge,2013-09-28 07:55:00,
2013-09-28 03:00:00,80.6,78.4,29.83,SE,142,0.9,6.9,93,0.00,,,0.00,0.0,meteobridge,2013-09-28 08:00:00,
2013-09-28 03:05:00,80.6,78.4,29.83,ESE,123,4.0,4.9,93,0.00,,,0.00,0.0,meteobridge,2013-09-28 08:05:00,
2013-09-28 03:10:00,80.8,78.6,29.83,SE,145,2.0,6.0,93,0.00,,,0.00,0.0,meteobridge,2013-09-28 08:10:00,
2013-09-28 03:15:00,80.8,78.6,29.83,SE,128,2.9,8.1,93,0.00,,,0.00,0.0,meteobridge,2013-09-28 08:15:00,
2013-09-28 03:20:00,80.8,78.6,29.83,SE,130,2.9,8.1,93,0.00,,,0.00,0.0,meteobridge,2013-09-28 08:20:00,
2013-09-28 03:25:00,81.0,78.8,29.83,SE,146,4.0,6.0,93,0.00,,,0.00,0.0,meteobridge,2013-09-28 08:25:00,
2013-09-28 03:30:00,81.0,78.8,29.83,SSE,152,2.9,6.9,93,0.00,,,0.00,0.0,meteobridge,2013-09-28 08:30:00,
2013-09-28 03:35:00,81.0,78.8,29.83,SE,144,11.0,12.1,93,0.00,,,0.00,0.0,meteobridge,2013-09-28 08:35:00,
2013-09-28 03:40:00,81.0,78.8,29.83,SE,143,4.9,11.0,93,0.00,,,0.00,0.0,meteobridge,2013-09-28 08:40:00,
2013-09-28 03:45:00,81.0,78.8,29.83,SE,146,10.1,10.1,93,0.00,,,0.00,0.0,meteobridge,2013-09-28 08:45:00,
2013-09-28 03:50:00,81.0,78.8,29.83,SSE,159,6.0,8.9,93,0.00,,,0.00,0.0,meteobridge,2013-09-28 08:50:00,
2013-09-28 03:55:00,81.0,78.8,29.83,SE,140,0.9,6.0,93,0.00,,,0.00,0.0,meteobridge,2013-09-28 08:55:00,
2013-09-28 04:00:00,81.0,78.8,29.83,SSE,159,8.9,12.1,93,0.00,,,0.00,0.0,meteobridge,2013-09-28 09:00:00,
2013-09-28 04:05:00,81.0,78.8,29.83,SE,142,6.9,10.1,93,0.00,,,0.00,0.0,meteobridge,2013-09-28 09:05:00,
2013-09-28 04:10:00,81.0,78.8,29.83,SE,142,6.9,11.0,93,0.00,,,0.00,0.0,meteobridge,2013-09-28 09:10:00,
2013-09-28 04:15:00,81.0,78.8,29.83,SE,142,6.0,8.9,93,0.00,,,0.00,0.0,meteobridge,2013-09-28 09:15:00,
2013-09-28 04:20:00,81.0,78.8,29.83,SE,130,4.9,8.9,93,0.00,,,0.00,0.0,meteobridge,2013-09-28 09:20:00,
2013-09-28 04:26:00,81.0,78.8,29.83,SE,144,4.9,8.1,93,0.00,,,0.00,0.0,meteobridge,2013-09-28 09:26:00,
2013-09-28 04:31:00,81.0,78.8,29.83,SE,142,8.1,10.1,93,0.00,,,0.00,0.0,meteobridge,2013-09-28 09:31:00,
2013-09-28 04:36:00,80.8,78.6,29.83,SE,138,11.0,11.0,93,0.00,,,0.00,0.0,meteobridge,2013-09-28 09:36:00,
2013-09-28 04:41:00,80.8,78.6,29.83,SE,144,2.9,11.0,93,0.00,,,0.00,0.0,meteobridge,2013-09-28 09:41:00,
2013-09-28 04:46:00,80.8,78.6,29.83,SE,134,8.1,11.0,93,0.00,,,0.00,0.0,meteobridge,2013-09-28 09:46:00,
2013-09-28 04:51:00,81.0,78.8,29.83,SE,137,4.9,6.9,93,0.00,,,0.00,0.0,meteobridge,2013-09-28 09:51:00,
2013-09-28 04:56:00,80.8,78.6,29.83,SSE,149,4.0,6.0,93,0.00,,,0.00,0.0,meteobridge,2013-09-28 09:56:00,
2013-09-28 05:01:00,80.8,78.6,29.83,SE,140,4.9,8.1,93,0.00,,,0.00,0.0,meteobridge,2013-09-28 10:01:00,
2013-09-28 05:06:00,80.8,78.6,29.83,SSE,148,6.9,8.1,93,0.00,,,0.00,0.0,meteobridge,2013-09-28 10:06:00,
2013-09-28 05:11:00,80.8,78.6,29.83,SSE,148,4.9,8.1,93,0.00,,,0.00,0.0,meteobridge,2013-09-28 10:11:00,
2013-09-28 05:16:00,80.8,78.6,29.84,SE,141,4.0,8.9,93,0.00,,,0.00,0.0,meteobridge,2013-09-28 10:16:00,
2013-09-28 05:21:00,80.8,78.6,29.84,SE,142,4.9,8.9,93,0.00,,,0.00,0.0,meteobridge,2013-09-28 10:21:00,
2013-09-28 05:26:00,80.8,78.6,29.84,SSE,153,6.0,8.9,93,0.00,,,0.00,0.0,meteobridge,2013-09-28 10:26:00,
2013-09-28 05:31:00,80.8,78.6,29.83,SSE,147,8.1,8.1,93,0.00,,,0.00,0.0,meteobridge,2013-09-28 10:31:00,
2013-09-28 05:36:00,80.8,78.6,29.83,SSE,147,4.9,8.1,93,0.00,,,0.00,0.0,meteobridge,2013-09-28 10:36:00,
2013-09-28 05:41:00,80.8,78.8,29.83,SE,134,6.0,6.9,94,0.00,,,0.00,0.0,meteobridge,2013-09-28 10:41:00,
2013-09-28 05:47:00,80.6,78.6,29.83,SSE,162,6.9,8.1,94,0.00,,,0.00,0.0,meteobridge,2013-09-28 10:47:00,
2013-09-28 05:52:00,80.4,78.6,29.83,SE,146,8.9,8.9,94,0.00,,,0.00,0.0,meteobridge,2013-09-28 10:52:00,
2013-09-28 05:57:00,80.4,78.6,29.83,SE,146,8.9,10.1,94,0.00,,,0.00,0.0,meteobridge,2013-09-28 10:57:00,
2013-09-28 06:02:00,80.4,78.6,29.84,SSE,150,2.9,8.9,94,0.01,,,0.01,0.0,meteobridge,2013-09-28 11:02:00,
2013-09-28 06:07:00,80.4,78.6,29.84,SSE,157,6.9,6.9,94,0.01,,,0.01,0.0,meteobridge,2013-09-28 11:07:00,
2013-09-28 06:12:00,80.2,78.6,29.84,SSE,167,6.0,6.9,95,0.01,,,0.01,0.0,meteobridge,2013-09-28 11:12:00,
2013-09-28 06:17:00,80.2,78.6,29.85,SSE,153,4.0,6.9,95,0.01,,,0.01,0.0,meteobridge,2013-09-28 11:17:00,
2013-09-28 06:22:00,80.1,78.4,29.85,SE,144,4.0,4.9,95,0.01,,,0.01,0.0,meteobridge,2013-09-28 11:22:00,
2013-09-28 06:27:00,80.1,78.4,29.85,SSE,148,4.0,6.0,95,0.01,,,0.01,0.0,meteobridge,2013-09-28 11:27:00,
2013-09-28 06:32:00,80.1,78.4,29.85,SE,143,2.9,4.9,95,0.01,,,0.01,0.0,meteobridge,2013-09-28 11:32:00,
2013-09-28 06:37:00,80.1,78.4,29.85,SE,142,2.0,4.0,95,0.01,,,0.01,0.0,meteobridge,2013-09-28 11:37:00,
2013-09-28 06:42:00,79.9,78.3,29.85,SE,146,2.0,6.9,95,0.01,,,0.01,0.0,meteobridge,2013-09-28 11:42:00,
2013-09-28 06:47:00,79.5,77.9,29.86,SSE,159,4.9,8.1,95,0.01,,,0.01,0.0,meteobridge,2013-09-28 11:47:00,
2013-09-28 06:52:00,79.3,77.7,29.86,SSE,151,2.9,6.9,95,0.01,,,0.01,0.0,meteobridge,2013-09-28 11:52:00,
2013-09-28 06:57:00,79.2,77.5,29.86,SE,143,2.0,6.0,95,0.01,,,0.01,0.0,meteobridge,2013-09-28 11:57:00,
2013-09-28 07:02:00,79.2,77.5,29.86,SE,145,2.9,4.0,95,0.00,,,0.01,0.0,meteobridge,2013-09-28 12:02:00,
2013-09-28 07:07:00,79.0,77.4,29.86,SE,139,4.0,6.0,95,0.00,,,0.01,0.0,meteobridge,2013-09-28 12:07:00,
2013-09-28 07:12:00,79.0,77.4,29.86,SSE,152,2.0,4.9,95,0.00,,,0.01,0.0,meteobridge,2013-09-28 12:12:00,
2013-09-28 07:17:00,79.0,77.4,29.86,SE,144,0.9,4.0,95,0.00,,,0.01,5.0,meteobridge,2013-09-28 12:17:00,
2013-09-28 07:22:00,79.0,77.4,29.86,SSE,153,0.9,4.0,95,0.00,,,0.01,7.0,meteobridge,2013-09-28 12:22:00,
2013-09-28 07:28:00,79.0,77.4,29.86,SE,146,0.9,4.0,95,0.00,,,0.01,7.0,meteobridge,2013-09-28 12:28:00,
2013-09-28 07:33:00,79.0,77.7,29.86,SE,145,2.9,2.9,96,0.00,,,0.01,9.0,meteobridge,2013-09-28 12:33:00,
2013-09-28 07:38:00,79.0,77.7,29.86,SE,146,0.0,2.9,96,0.00,,,0.01,11.0,meteobridge,2013-09-28 12:38:00,
2013-09-28 07:43:00,79.0,77.7,29.86,SE,146,0.9,0.9,96,0.00,,,0.01,14.0,meteobridge,2013-09-28 12:43:00,
2013-09-28 07:48:00,79.0,77.7,29.87,SE,146,0.0,0.0,96,0.00,,,0.01,19.0,meteobridge,2013-09-28 12:48:00,
2013-09-28 07:53:00,79.0,77.7,29.87,SE,146,0.0,0.0,96,0.00,,,0.01,26.0,meteobridge,2013-09-28 12:53:00,
2013-09-28 07:58:00,79.0,77.7,29.87,SE,146,0.0,0.0,96,0.00,,,0.01,65.0,meteobridge,2013-09-28 12:58:00,
2013-09-28 08:04:00,79.2,77.9,29.88,SE,146,0.0,0.0,96,0.00,,,0.01,81.0,meteobridge,2013-09-28 13:04:00,
2013-09-28 08:09:00,79.5,78.3,29.88,SE,146,0.0,0.0,96,0.00,,,0.01,102.0,meteobridge,2013-09-28 13:09:00,
2013-09-28 08:14:00,79.9,78.6,29.88,SE,142,0.0,0.0,96,0.00,,,0.01,113.0,meteobridge,2013-09-28 13:14:00,
2013-09-28 08:19:00,80.2,79.0,29.88,SE,141,0.0,0.9,96,0.00,,,0.01,132.0,meteobridge,2013-09-28 13:19:00,
2013-09-28 08:24:00,80.8,79.5,29.88,SE,141,0.0,0.0,96,0.00,,,0.01,153.0,meteobridge,2013-09-28 13:24:00,
2013-09-28 08:29:00,81.0,79.7,29.88,SE,140,0.9,2.0,96,0.00,,,0.01,178.0,meteobridge,2013-09-28 13:29:00,
2013-09-28 08:34:00,81.3,79.7,29.88,SE,137,2.9,4.9,95,0.00,,,0.01,199.0,meteobridge,2013-09-28 13:34:00,
2013-09-28 08:39:00,81.7,79.7,29.88,SSE,152,4.0,8.1,94,0.00,,,0.01,218.0,meteobridge,2013-09-28 13:39:00,
2013-09-28 08:44:00,82.0,80.1,29.89,SSE,147,4.0,10.1,94,0.00,,,0.01,234.0,meteobridge,2013-09-28 13:44:00,
2013-09-28 08:49:00,82.4,80.2,29.89,SSE,148,6.0,8.9,93,0.00,,,0.01,251.0,meteobridge,2013-09-28 13:49:00,
2013-09-28 08:54:00,82.8,80.2,29.89,SE,138,6.0,8.9,92,0.00,,,0.01,271.0,meteobridge,2013-09-28 13:54:00,
2013-09-28 08:59:00,83.1,80.2,29.89,SSE,159,6.9,10.1,91,0.00,,,0.01,290.0,meteobridge,2013-09-28 13:59:00,
2013-09-28 09:04:00,83.3,80.1,29.89,SSE,159,4.9,10.1,90,0.00,,,0.01,306.0,meteobridge,2013-09-28 14:04:00,
2013-09-28 09:09:00,83.7,80.4,29.89,South,169,6.0,10.1,90,0.00,,,0.01,320.0,meteobridge,2013-09-28 14:09:00,
2013-09-28 09:14:00,83.8,79.9,29.89,SSE,157,8.1,14.1,88,0.00,,,0.01,348.0,meteobridge,2013-09-28 14:14:00,
2013-09-28 09:19:00,84.0,80.4,29.89,SSE,168,6.9,8.1,89,0.00,,,0.01,258.0,meteobridge,2013-09-28 14:19:00,
2013-09-28 09:24:00,84.0,80.1,29.89,SSE,161,6.0,12.1,88,0.00,,,0.01,425.0,meteobridge,2013-09-28 14:24:00,
2013-09-28 09:29:00,84.0,80.1,29.90,South,171,4.9,8.9,88,0.00,,,0.01,90.0,meteobridge,2013-09-28 14:29:00,
2013-09-28 09:34:00,83.5,78.8,29.90,SSE,168,6.9,8.9,86,0.00,,,0.01,79.0,meteobridge,2013-09-28 14:34:00,
2013-09-28 09:40:00,83.3,79.0,29.90,South,171,2.9,6.9,87,0.00,,,0.01,84.0,meteobridge,2013-09-28 14:40:00,
2013-09-28 09:45:00,83.3,79.0,29.90,South,173,4.0,6.9,87,0.00,,,0.01,114.0,meteobridge,2013-09-28 14:45:00,
2013-09-28 09:50:00,83.3,79.0,29.90,South,169,4.0,8.1,87,0.00,,,0.01,105.0,meteobridge,2013-09-28 14:50:00,
2013-09-28 09:55:00,83.5,79.2,29.90,SSE,162,4.0,8.9,87,0.00,,,0.01,111.0,meteobridge,2013-09-28 14:55:00,
2013-09-28 10:00:00,83.7,79.0,29.91,South,176,4.9,8.1,86,0.00,,,0.01,88.0,meteobridge,2013-09-28 15:00:00,
2013-09-28 10:05:00,83.7,79.3,29.91,SSE,165,4.9,6.0,87,0.00,,,0.01,98.0,meteobridge,2013-09-28 15:05:00,
2013-09-28 10:10:00,83.7,79.0,29.91,South,170,2.0,8.9,86,0.00,,,0.01,155.0,meteobridge,2013-09-28 15:10:00,
2013-09-28 10:15:00,85.3,79.9,29.91,SSE,168,6.9,10.1,84,0.00,,,0.01,584.0,meteobridge,2013-09-28 15:15:00,
2013-09-28 10:20:00,85.6,79.5,29.91,South,182,6.9,10.1,82,0.00,,,0.01,570.0,meteobridge,2013-09-28 15:20:00,
2013-09-28 10:25:00,86.2,79.7,29.91,SSE,151,13.0,14.1,81,0.00,,,0.01,608.0,meteobridge,2013-09-28 15:25:00,
2013-09-28 10:30:00,86.0,79.5,29.91,SSE,164,6.0,13.0,81,0.00,,,0.01,715.0,meteobridge,2013-09-28 15:30:00,
2013-09-28 10:35:00,86.4,79.9,29.91,SSE,155,8.9,15.0,81,0.00,,,0.01,682.0,meteobridge,2013-09-28 15:35:00,
2013-09-28 10:40:00,86.5,80.1,29.91,SSE,157,10.1,13.0,81,0.00,,,0.01,717.0,meteobridge,2013-09-28 15:40:00,
2013-09-28 10:45:00,86.7,79.9,29.91,South,173,12.1,13.0,80,0.00,,,0.01,684.0,meteobridge,2013-09-28 15:45:00,
2013-09-28 10:50:00,86.7,80.2,29.91,SSE,168,8.9,11.0,81,0.00,,,0.01,664.0,meteobridge,2013-09-28 15:50:00,
2013-09-28 10:55:00,87.1,79.7,29.91,SSE,149,11.0,11.0,79,0.00,,,0.01,677.0,meteobridge,2013-09-28 15:55:00,
2013-09-28 11:00:00,86.7,79.3,29.91,SSE,163,11.0,11.0,79,0.00,,,0.01,185.0,meteobridge,2013-09-28 16:00:00,
2013-09-28 11:05:00,87.1,79.7,29.91,South,190,11.0,13.0,79,0.00,,,0.01,728.0,meteobridge,2013-09-28 16:05:00,
2013-09-28 11:10:00,86.5,79.2,29.91,SE,143,14.1,17.0,79,0.00,,,0.01,292.0,meteobridge,2013-09-28 16:10:00,
2013-09-28 11:15:00,86.7,79.9,29.91,South,175,8.9,12.1,80,0.00,,,0.01,733.0,meteobridge,2013-09-28 16:15:00,
2013-09-28 11:20:00,87.3,79.5,29.91,SSE,157,8.9,15.0,78,0.00,,,0.01,737.0,meteobridge,2013-09-28 16:20:00,
2013-09-28 11:25:00,87.6,79.9,29.91,SE,145,8.1,11.0,78,0.00,,,0.01,779.0,meteobridge,2013-09-28 16:25:00,
2013-09-28 11:31:00,88.2,80.1,29.91,SSE,152,10.1,12.1,77,0.00,,,0.01,823.0,meteobridge,2013-09-28 16:31:00,
2013-09-28 11:36:00,88.0,79.9,29.91,SE,141,6.9,12.1,77,0.00,,,0.01,823.0,meteobridge,2013-09-28 16:36:00,
2013-09-28 11:41:00,88.2,80.4,29.91,SSE,167,8.9,10.1,78,0.00,,,0.01,872.0,meteobridge,2013-09-28 16:41:00,
2013-09-28 11:46:00,88.3,80.2,29.91,SSE,151,14.1,15.0,77,0.00,,,0.01,884.0,meteobridge,2013-09-28 16:46:00,
2013-09-28 11:51:00,87.6,79.5,29.91,SSE,153,10.1,14.1,77,0.00,,,0.01,301.0,meteobridge,2013-09-28 16:51:00,
2013-09-28 11:56:00,88.2,80.1,29.91,SSE,164,10.1,16.1,77,0.00,,,0.01,879.0,meteobridge,2013-09-28 16:56:00,
2013-09-28 12:01:00,88.0,79.9,29.91,SSE,160,8.1,12.1,77,0.00,,,0.01,374.0,meteobridge,2013-09-28 17:01:00,
2013-09-28 12:06:00,88.2,80.1,29.91,SSE,162,8.1,15.0,77,0.00,,,0.01,969.0,meteobridge,2013-09-28 17:06:00,
2013-09-28 12:11:00,88.7,80.6,29.91,SSE,156,6.9,13.0,77,0.00,,,0.01,1002.0,meteobridge,2013-09-28 17:11:00,
2013-09-28 12:16:00,89.1,81.3,29.91,SSE,167,11.0,14.1,78,0.00,,,0.01,984.0,meteobridge,2013-09-28 17:16:00,
2013-09-28 12:21:00,88.5,80.1,29.91,South,171,10.1,16.1,76,0.00,,,0.01,1002.0,meteobridge,2013-09-28 17:21:00,
2013-09-28 12:26:00,89.1,81.0,29.91,South,177,10.1,13.0,77,0.00,,,0.01,896.0,meteobridge,2013-09-28 17:26:00,
2013-09-28 12:31:00,88.9,79.5,29.91,SSE,165,10.1,16.1,74,0.00,,,0.01,856.0,meteobridge,2013-09-28 17:31:00,
2013-09-28 12:36:00,88.5,79.5,29.91,SSE,147,11.0,16.1,75,0.00,,,0.01,830.0,meteobridge,2013-09-28 17:36:00,
2013-09-28 12:41:00,88.5,80.1,29.91,SSE,163,12.1,13.0,76,0.00,,,0.01,833.0,meteobridge,2013-09-28 17:41:00,
2013-09-28 12:46:00,88.9,80.8,29.91,SE,144,8.9,14.1,77,0.00,,,0.01,851.0,meteobridge,2013-09-28 17:46:00,
2013-09-28 12:51:00,88.9,79.9,29.91,SE,143,10.1,15.0,75,0.00,,,0.01,833.0,meteobridge,2013-09-28 17:51:00,
2013-09-28 12:56:00,89.4,80.1,29.91,SSE,147,12.1,16.1,74,0.00,,,0.01,860.0,meteobridge,2013-09-28 17:56:00,
2013-09-28 13:01:00,89.6,79.7,29.89,SSW,192,10.1,12.1,73,0.00,,,0.01,858.0,meteobridge,2013-09-28 18:01:00,
2013-09-28 13:06:00,89.8,80.8,29.89,SSE,156,12.1,13.0,75,0.00,,,0.01,847.0,meteobridge,2013-09-28 18:06:00,
2013-09-28 13:11:00,89.4,79.2,29.89,SSE,153,8.1,14.1,72,0.00,,,0.01,939.0,meteobridge,2013-09-28 18:11:00,
2013-09-28 13:16:00,89.4,80.1,29.89,South,169,10.1,16.1,74,0.00,,,0.01,846.0,meteobridge,2013-09-28 18:16:00,
2013-09-28 13:21:00,89.8,79.5,29.89,SSW,192,12.1,16.1,72,0.00,,,0.01,891.0,meteobridge,2013-09-28 18:21:00,
2013-09-28 13:26:00,90.0,79.3,29.89,SSW,196,8.9,14.1,71,0.00,,,0.01,865.0,meteobridge,2013-09-28 18:26:00,
2013-09-28 13:31:00,89.8,78.6,29.88,South,169,12.1,16.1,70,0.00,,,0.01,953.0,meteobridge,2013-09-28 18:31:00,
2013-09-28 13:36:00,89.8,78.6,29.88,South,180,6.0,17.0,70,0.00,,,0.01,861.0,meteobridge,2013-09-28 18:36:00,
2013-09-28 13:41:00,89.8,79.5,29.88,SSE,165,11.0,13.0,72,0.00,,,0.01,881.0,meteobridge,2013-09-28 18:41:00,
2013-09-28 13:46:00,89.8,79.2,29.88,SSE,150,12.1,17.9,71,0.00,,,0.01,881.0,meteobridge,2013-09-28 18:46:00,
2013-09-28 13:51:00,89.8,79.2,29.88,South,182,10.1,14.1,71,0.00,,,0.01,884.0,meteobridge,2013-09-28 18:51:00,
2013-09-28 13:57:00,89.4,79.7,29.88,SE,146,12.1,12.1,73,0.00,,,0.01,932.0,meteobridge,2013-09-28 18:57:00,
2013-09-28 14:02:00,90.5,80.6,29.88,SE,144,8.1,13.0,73,0.00,,,0.01,861.0,meteobridge,2013-09-28 19:02:00,
2013-09-28 14:07:00,90.0,80.6,29.88,South,179,8.9,13.0,74,0.00,,,0.01,860.0,meteobridge,2013-09-28 19:07:00,
2013-09-28 14:12:00,89.8,80.4,29.88,SSE,150,10.1,14.1,74,0.00,,,0.01,918.0,meteobridge,2013-09-28 19:12:00,
2013-09-28 14:17:00,90.0,80.6,29.88,SE,141,8.1,16.1,74,0.00,,,0.01,828.0,meteobridge,2013-09-28 19:17:00,
2013-09-28 14:22:00,89.8,79.5,29.88,SE,146,12.1,13.0,72,0.00,,,0.01,842.0,meteobridge,2013-09-28 19:22:00,
2013-09-28 14:27:00,89.4,80.1,29.88,SSE,150,14.1,15.0,74,0.00,,,0.01,802.0,meteobridge,2013-09-28 19:27:00,
2013-09-28 14:32:00,89.6,79.7,29.88,SSE,157,4.9,14.1,73,0.00,,,0.01,802.0,meteobridge,2013-09-28 19:32:00,
2013-09-28 14:37:00,89.1,78.8,29.88,SSE,148,12.1,15.0,72,0.00,,,0.01,784.0,meteobridge,2013-09-28 19:37:00,
2013-09-28 14:42:00,89.4,79.2,29.88,South,178,11.0,15.0,72,0.00,,,0.01,809.0,meteobridge,2013-09-28 19:42:00,
2013-09-28 14:47:00,89.2,79.5,29.87,SSE,165,11.0,17.0,73,0.00,,,0.01,183.0,meteobridge,2013-09-28 19:47:00,
2013-09-28 14:52:00,88.9,79.2,29.87,SSE,150,11.0,13.0,73,0.00,,,0.01,211.0,meteobridge,2013-09-28 19:52:00,
2013-09-28 14:57:00,89.2,79.9,29.87,SSE,152,6.9,14.1,74,0.00,,,0.01,805.0,meteobridge,2013-09-28 19:57:00,
2013-09-28 15:02:00,89.6,79.7,29.86,South,171,13.0,16.1,73,0.00,,,0.01,772.0,meteobridge,2013-09-28 20:02:00,
2013-09-28 15:07:00,89.4,78.8,29.86,SE,146,10.1,12.1,71,0.00,,,0.01,738.0,meteobridge,2013-09-28 20:07:00,
2013-09-28 15:12:00,89.2,79.9,29.86,SSE,153,11.0,11.0,74,0.00,,,0.01,722.0,meteobridge,2013-09-28 20:12:00,
2013-09-28 15:17:00,89.4,79.7,29.86,SE,144,11.0,17.9,73,0.00,,,0.01,715.0,meteobridge,2013-09-28 20:17:00,
2013-09-28 15:22:00,88.7,78.1,29.86,SSE,151,11.0,15.0,71,0.00,,,0.01,128.0,meteobridge,2013-09-28 20:22:00,
2013-09-28 15:27:00,89.1,78.8,29.86,SSE,163,8.9,15.0,72,0.00,,,0.01,673.0,meteobridge,2013-09-28 20:27:00,
2013-09-28 15:32:00,89.2,79.9,29.85,SE,144,15.0,16.1,74,0.00,,,0.01,670.0,meteobridge,2013-09-28 20:32:00,
2013-09-28 15:37:00,89.2,79.5,29.85,South,173,10.1,15.0,73,0.00,,,0.01,675.0,meteobridge,2013-09-28 20:37:00,
2013-09-28 15:42:00,89.1,79.7,29.85,SSE,159,6.0,14.1,74,0.00,,,0.01,677.0,meteobridge,2013-09-28 20:42:00,
2013-09-28 15:47:00,89.2,79.5,29.85,SSE,161,13.0,15.0,73,0.00,,,0.01,640.0,meteobridge,2013-09-28 20:47:00,
2013-09-28 15:52:00,88.2,79.2,29.85,SE,142,13.0,17.0,75,0.00,,,0.01,111.0,meteobridge,2013-09-28 20:52:00,
2013-09-28 15:57:00,88.5,79.5,29.85,SSE,159,11.0,14.1,75,0.00,,,0.01,601.0,meteobridge,2013-09-28 20:57:00,
2013-09-28 16:02:00,88.9,79.9,29.85,SSE,163,4.9,15.0,75,0.00,,,0.01,585.0,meteobridge,2013-09-28 21:02:00,
2013-09-28 16:07:00,88.9,79.5,29.85,South,176,12.1,14.1,74,0.00,,,0.01,578.0,meteobridge,2013-09-28 21:07:00,
2013-09-28 16:12:00,88.0,79.0,29.85,SSE,150,6.9,13.0,75,0.00,,,0.01,97.0,meteobridge,2013-09-28 21:12:00,
2013-09-28 16:17:00,87.4,78.6,29.86,SE,144,12.1,17.0,75,0.00,,,0.01,144.0,meteobridge,2013-09-28 21:17:00,
2013-09-28 16:22:00,87.6,79.2,29.86,SE,145,14.1,16.1,76,0.00,,,0.01,548.0,meteobridge,2013-09-28 21:22:00,
2013-09-28 16:27:00,88.2,80.1,29.86,SSE,159,10.1,15.0,77,0.00,,,0.01,527.0,meteobridge,2013-09-28 21:27:00,
2013-09-28 16:32:00,88.2,79.7,29.86,SE,146,11.0,15.0,76,0.00,,,0.01,510.0,meteobridge,2013-09-28 21:32:00,
2013-09-28 16:38:00,88.2,78.8,29.86,SSE,160,12.1,15.0,74,0.00,,,0.01,478.0,meteobridge,2013-09-28 21:38:00,
2013-09-28 16:43:00,87.8,78.8,29.86,South,175,12.1,15.0,75,0.00,,,0.01,464.0,meteobridge,2013-09-28 21:43:00,
2013-09-28 16:48:00,88.0,79.5,29.85,South,169,13.0,17.0,76,0.00,,,0.01,462.0,meteobridge,2013-09-28 21:48:00,
2013-09-28 16:53:00,88.3,79.0,29.85,SSE,153,11.0,16.1,74,0.00,,,0.01,431.0,meteobridge,2013-09-28 21:53:00,
2013-09-28 16:58:00,88.2,79.7,29.85,South,171,11.0,13.0,76,0.00,,,0.01,422.0,meteobridge,2013-09-28 21:58:00,
2013-09-28 17:03:00,87.6,78.3,29.85,SSE,157,11.0,15.0,74,0.00,,,0.01,181.0,meteobridge,2013-09-28 22:03:00,
2013-09-28 17:08:00,87.6,78.6,29.85,SSE,147,8.9,12.1,75,0.00,,,0.01,378.0,meteobridge,2013-09-28 22:08:00,
2013-09-28 17:13:00,87.8,78.8,29.85,SSE,147,14.1,16.1,75,0.00,,,0.01,362.0,meteobridge,2013-09-28 22:13:00,
2013-09-28 17:18:00,87.4,78.6,29.85,SE,137,10.1,17.0,75,0.00,,,0.01,348.0,meteobridge,2013-09-28 22:18:00,
2013-09-28 17:23:00,87.3,79.2,29.85,SE,144,11.0,13.0,77,0.00,,,0.01,253.0,meteobridge,2013-09-28 22:23:00,
2013-09-28 17:28:00,86.7,79.0,29.85,SSE,158,4.9,14.1,78,0.00,,,0.01,311.0,meteobridge,2013-09-28 22:28:00,
2013-09-28 17:33:00,86.5,78.8,29.85,SSE,152,8.1,15.0,78,0.00,,,0.01,60.0,meteobridge,2013-09-28 22:33:00,
2013-09-28 17:38:00,86.4,78.6,29.85,ESE,117,11.0,16.1,78,0.00,,,0.01,294.0,meteobridge,2013-09-28 22:38:00,
2013-09-28 17:43:00,86.2,78.4,29.85,SSE,161,8.9,13.0,78,0.00,,,0.01,51.0,meteobridge,2013-09-28 22:43:00,
2013-09-28 17:48:00,85.8,78.1,29.85,SSE,153,8.1,13.0,78,0.00,,,0.01,230.0,meteobridge,2013-09-28 22:48:00,
2013-09-28 17:53:00,86.2,77.7,29.85,SSE,159,6.9,13.0,76,0.00,,,0.01,111.0,meteobridge,2013-09-28 22:53:00,
2013-09-28 17:58:00,86.2,78.4,29.85,South,178,8.1,16.1,78,0.00,,,0.01,142.0,meteobridge,2013-09-28 22:58:00,
2013-09-28 18:03:00,86.2,79.3,29.85,SSE,161,10.1,12.1,80,0.00,,,0.01,137.0,meteobridge,2013-09-28 23:03:00,
2013-09-28 18:08:00,85.8,79.0,29.85,SE,140,6.0,10.1,80,0.00,,,0.01,118.0,meteobridge,2013-09-28 23:08:00,
2013-09-28 18:13:00,85.8,79.0,29.85,SE,145,12.1,12.1,80,0.00,,,0.01,111.0,meteobridge,2013-09-28 23:13:00,
2013-09-28 18:18:00,85.6,79.2,29.86,SSE,159,10.1,14.1,81,0.00,,,0.01,102.0,meteobridge,2013-09-28 23:18:00,
2013-09-28 18:23:00,85.5,79.0,29.86,ESE,122,4.9,10.1,81,0.00,,,0.01,47.0,meteobridge,2013-09-28 23:23:00,
2013-09-28 18:28:00,84.9,78.8,29.86,SSE,163,10.1,11.0,82,0.00,,,0.01,25.0,meteobridge,2013-09-28 23:28:00,
2013-09-28 18:33:00,84.7,78.6,29.86,SE,146,4.9,10.1,82,0.00,,,0.01,18.0,meteobridge,2013-09-28 23:33:00,
2013-09-28 18:38:00,84.4,78.3,29.86,SSE,149,8.1,11.0,82,0.00,,,0.01,16.0,meteobridge,2013-09-28 23:38:00,
2013-09-28 18:44:00,84.2,78.1,29.86,SE,146,8.1,8.9,82,0.00,,,0.01,19.0,meteobridge,2013-09-28 23:44:00,
2013-09-28 18:49:00,84.0,77.9,29.86,SE,142,6.0,11.0,82,0.00,,,0.01,23.0,meteobridge,2013-09-28 23:49:00,
2013-09-28 18:54:00,84.0,78.3,29.86,SE,144,4.9,8.1,83,0.00,,,0.01,19.0,meteobridge,2013-09-28 23:54:00,
2013-09-28 18:59:00,84.0,78.3,29.86,SE,144,6.0,10.1,83,0.00,,,0.01,11.0,meteobridge,2013-09-28 23:59:00,
2013-09-28 19:04:00,83.8,78.4,29.87,SE,130,4.9,10.1,84,0.00,,,0.01,7.0,meteobridge,2013-09-29 00:04:00,
2013-09-28 19:09:00,83.5,78.4,29.87,SE,142,4.9,6.0,85,0.00,,,0.01,5.0,meteobridge,2013-09-29 00:09:00,
2013-09-28 19:14:00,83.3,78.3,29.87,SSE,160,4.0,4.9,85,0.00,,,0.01,0.0,meteobridge,2013-09-29 00:14:00,
2013-09-28 19:19:00,83.1,78.4,29.87,SE,133,2.0,6.9,86,0.00,,,0.01,0.0,meteobridge,2013-09-29 00:19:00,
2013-09-28 19:24:00,82.9,78.3,29.87,SSE,155,8.1,8.9,86,0.00,,,0.01,0.0,meteobridge,2013-09-29 00:24:00,
2013-09-28 19:29:00,82.8,78.1,29.87,ESE,120,6.9,8.1,86,0.00,,,0.01,0.0,meteobridge,2013-09-29 00:29:00,
2013-09-28 19:34:00,82.6,78.3,29.87,SSE,149,4.9,8.9,87,0.00,,,0.01,0.0,meteobridge,2013-09-29 00:34:00,
2013-09-28 19:39:00,82.4,78.1,29.87,SE,146,8.1,8.1,87,0.00,,,0.01,0.0,meteobridge,2013-09-29 00:39:00,
2013-09-28 19:44:00,82.2,77.9,29.88,SE,137,2.9,6.9,87,0.00,,,0.01,0.0,meteobridge,2013-09-29 00:44:00,
2013-09-28 19:49:00,82.2,77.9,29.88,ESE,119,8.1,8.1,87,0.00,,,0.01,0.0,meteobridge,2013-09-29 00:49:00,
2013-09-28 19:55:00,82.0,78.1,29.88,SE,134,0.9,2.9,88,0.00,,,0.01,0.0,meteobridge,2013-09-29 00:55:00,
2013-09-28 20:00:00,82.0,78.1,29.89,SE,142,0.9,8.1,88,0.00,,,0.01,0.0,meteobridge,2013-09-29 01:00:00,
2013-09-28 20:05:00,82.0,78.1,29.89,SSE,155,4.9,6.0,88,0.00,,,0.01,0.0,meteobridge,2013-09-29 01:05:00,
2013-09-28 20:10:00,81.9,77.9,29.89,SE,135,2.0,2.9,88,0.00,,,0.01,0.0,meteobridge,2013-09-29 01:10:00,
2013-09-28 20:15:00,81.7,78.1,29.89,SE,130,0.9,2.9,89,0.00,,,0.01,0.0,meteobridge,2013-09-29 01:15:00,
2013-09-28 20:20:00,81.5,77.9,29.89,SE,130,0.0,0.9,89,0.00,,,0.01,0.0,meteobridge,2013-09-29 01:20:00,
2013-09-28 20:25:00,81.3,77.7,29.89,SE,144,0.0,2.9,89,0.00,,,0.01,0.0,meteobridge,2013-09-29 01:25:00,
2013-09-28 20:30:00,81.1,77.9,29.89,SE,138,0.0,2.0,90,0.00,,,0.01,0.0,meteobridge,2013-09-29 01:30:00,
2013-09-28 20:35:00,81.1,77.9,29.89,ESE,120,0.9,2.0,90,0.00,,,0.01,0.0,meteobridge,2013-09-29 01:35:00,
2013-09-28 20:40:00,81.1,77.9,29.89,ESE,113,0.9,2.9,90,0.00,,,0.01,0.0,meteobridge,2013-09-29 01:40:00,
2013-09-28 20:45:00,81.1,78.3,29.90,SSE,148,0.0,2.0,91,0.00,,,0.01,0.0,meteobridge,2013-09-29 01:45:00,
2013-09-28 20:51:00,81.1,78.3,29.90,SE,142,0.0,2.9,91,0.00,,,0.01,0.0,meteobridge,2013-09-29 01:51:00,
2013-09-28 20:56:00,81.0,78.1,29.90,SE,135,0.0,2.0,91,0.00,,,0.01,0.0,meteobridge,2013-09-29 01:56:00,
2013-09-28 21:01:00,81.0,78.1,29.91,SE,127,0.0,0.9,91,0.00,,,0.01,0.0,meteobridge,2013-09-29 02:01:00,
2013-09-28 21:06:00,81.0,78.1,29.91,SE,126,0.9,0.9,91,0.00,,,0.01,0.0,meteobridge,2013-09-29 02:06:00,
2013-09-28 21:11:00,81.0,78.4,29.91,SE,126,0.0,0.9,92,0.00,,,0.01,0.0,meteobridge,2013-09-29 02:11:00,
2013-09-28 21:16:00,80.8,78.3,29.91,SE,140,0.9,2.0,92,0.00,,,0.01,0.0,meteobridge,2013-09-29 02:16:00,
2013-09-28 21:21:00,80.8,78.3,29.91,SE,142,0.9,2.0,92,0.00,,,0.01,0.0,meteobridge,2013-09-29 02:21:00,
2013-09-28 21:26:00,80.8,78.3,29.91,SE,136,0.0,2.0,92,0.00,,,0.01,0.0,meteobridge,2013-09-29 02:26:00,
2013-09-28 21:31:00,80.8,78.6,29.92,SSE,149,0.0,4.0,93,0.00,,,0.01,0.0,meteobridge,2013-09-29 02:31:00,
2013-09-28 21:36:00,80.6,78.4,29.92,SE,126,0.0,2.0,93,0.00,,,0.01,0.0,meteobridge,2013-09-29 02:36:00,
2013-09-28 21:41:00,80.4,78.3,29.92,SE,125,0.0,2.0,93,0.00,,,0.01,0.0,meteobridge,2013-09-29 02:41:00,
2013-09-28 21:47:00,80.4,78.3,29.91,SE,134,0.0,0.9,93,0.00,,,0.01,0.0,meteobridge,2013-09-29 02:47:00,
2013-09-28 21:52:00,80.2,78.1,29.91,SE,132,0.0,4.0,93,0.00,,,0.01,0.0,meteobridge,2013-09-29 02:52:00,
2013-09-28 21:57:00,80.2,78.4,29.91,ESE,118,0.9,4.9,94,0.00,,,0.01,0.0,meteobridge,2013-09-29 02:57:00,
2013-09-28 22:02:00,80.2,78.4,29.91,SE,128,0.0,4.0,94,0.00,,,0.01,0.0,meteobridge,2013-09-29 03:02:00,
2013-09-28 22:07:00,80.1,78.3,29.91,SE,126,0.0,4.9,94,0.00,,,0.01,0.0,meteobridge,2013-09-29 03:07:00,
2013-09-28 22:12:00,80.1,78.3,29.91,SSE,151,0.0,4.0,94,0.00,,,0.01,0.0,meteobridge,2013-09-29 03:12:00,
2013-09-28 22:17:00,80.1,78.3,29.92,SE,139,0.0,4.0,94,0.00,,,0.01,0.0,meteobridge,2013-09-29 03:17:00,
2013-09-28 22:22:00,79.9,78.1,29.92,SE,127,0.9,0.9,94,0.00,,,0.01,0.0,meteobridge,2013-09-29 03:22:00,
2013-09-28 22:27:00,79.9,78.1,29.92,ESE,116,0.0,2.0,94,0.00,,,0.01,0.0,meteobridge,2013-09-29 03:27:00,
2013-09-28 22:33:00,79.9,78.1,29.92,SE,140,0.0,0.0,94,0.00,,,0.01,0.0,meteobridge,2013-09-29 03:33:00,
2013-09-28 22:38:00,79.7,78.1,29.92,SSE,148,4.0,4.0,95,0.00,,,0.01,0.0,meteobridge,2013-09-29 03:38:00,
2013-09-28 22:43:00,79.7,78.1,29.92,SE,144,2.0,4.0,95,0.00,,,0.01,0.0,meteobridge,2013-09-29 03:43:00,
2013-09-28 22:48:00,79.5,77.9,29.92,SSE,154,0.0,2.9,95,0.00,,,0.01,0.0,meteobridge,2013-09-29 03:48:00,
2013-09-28 22:53:00,79.5,77.9,29.92,SSE,147,0.9,2.0,95,0.00,,,0.01,0.0,meteobridge,2013-09-29 03:53:00,
2013-09-28 22:58:00,79.3,77.7,29.92,SE,138,0.0,2.0,95,0.00,,,0.01,0.0,meteobridge,2013-09-29 03:58:00,
2013-09-28 23:01:00,79.3,77.7,29.92,SSE,154,0.0,2.9,95,0.00,,,0.01,0.0,meteobridge,2013-09-29 04:01:00,
2013-09-28 23:02:00,79.3,77.7,29.92,SSE,154,0.0,2.9,95,0.00,,,0.01,0.0,meteobridge,2013-09-29 04:02:00,
2013-09-28 23:07:00,79.3,77.7,29.92,SSE,150,0.0,0.0,95,0.00,,,0.01,0.0,meteobridge,2013-09-29 04:07:00,
2013-09-28 23:12:00,79.3,77.7,29.92,SE,144,0.0,2.0,95,0.00,,,0.01,0.0,meteobridge,2013-09-29 04:12:00,
2013-09-28 23:17:00,79.3,77.7,29.91,SSE,155,0.0,2.9,95,0.00,,,0.01,0.0,meteobridge,2013-09-29 04:17:00,
2013-09-28 23:22:00,79.2,77.5,29.91,SE,146,0.0,2.0,95,0.00,,,0.01,0.0,meteobridge,2013-09-29 04:22:00,
2013-09-28 23:27:00,79.2,77.5,29.91,SE,141,2.9,4.9,95,0.00,,,0.01,0.0,meteobridge,2013-09-29 04:27:00,
2013-09-28 23:32:00,79.2,77.5,29.91,SE,144,2.0,4.9,95,0.00,,,0.01,0.0,meteobridge,2013-09-29 04:32:00,
2013-09-28 23:37:00,79.2,77.5,29.91,SE,146,0.0,2.0,95,0.00,,,0.01,0.0,meteobridge,2013-09-29 04:37:00,
2013-09-28 23:42:00,79.2,77.5,29.91,SE,146,0.0,0.9,95,0.00,,,0.01,0.0,meteobridge,2013-09-29 04:42:00,
2013-09-28 23:48:00,79.2,77.9,29.91,SSE,148,0.9,0.9,96,0.00,,,0.01,0.0,meteobridge,2013-09-29 04:48:00,
2013-09-28 23:53:00,79.2,77.9,29.91,SE,139,4.0,4.0,96,0.00,,,0.01,0.0,meteobridge,2013-09-29 04:53:00,
2013-09-28 23:58:00,79.0,77.7,29.91,SE,145,0.0,0.9,96,0.00,,,0.01,0.0,meteobridge,2013-09-29 04:58:00,